Flag Weather past 2 weeks in Rawalpindi, Pakistan

Now
61 °F

Scattered clouds.


Feels Like: 61 °F
Forecast: 51 / 78 °F
Wind: 5 mph from Northeast

Location: Islamabad Airport

Current Time: Nov 28, 2014 at 10:59:29 AM

Latest Report: Nov 28, 2014 at 10:00 AM


Visibility: 2 mi

Pressure: 30.07 "Hg

Humidity: 63%

Dew point: 48 °F

Location of RawalpindiLocation

Historic Weather in Rawalpindi — Graph

°F

Rawalpindi temperature yesterday

Maximum temperature yesterday: 72 °F (at 4:00 PM)
Minimum temperature yesterday: 48 °F (at 2:00 AM)
Average temperature yesterday: 58 °F

Past Weeks' High & Low Weather Summary

 TemperatureHumidityPressure
High77 °F (Nov 14, 3:00 PM)100% (Nov 15, 12:00 PM)30.15 "Hg (Nov 15, 12:00 PM)
Low43 °F (Nov 24, 6:00 AM)21% (Nov 17, 12:00 PM)29.83 "Hg (Nov 26, 3:00 PM)
Average59 °F62%30.03 "Hg
* Reported Nov 13 10:00 AM — Nov 28 10:00 AM, Rawalpindi, Weather by CustomWeather, © 2014

Note: Actual official high and low records may vary slightly from our data, if they occured in-between our weather recording intervals... More about our weather records

Advertising

Rawalpindi weather history for previous 24 hours

 ConditionsComfort  
Time TempWeatherWind HumidityBarometerVisibility
10:00 AM
Nov 28
61 °FScattered clouds.5 mph63%30.07 "Hg2 mi
9:00 AM55 °FFog.No wind72%30.07 "Hg1 mi
8:00 AM52 °FFog.No wind82%30.04 "Hg1 mi
7:00 AM48 °FFog.No wind94%30.01 "Hg2 mi
6:00 AM50 °FFog.No wind88%29.98 "Hg2 mi
5:00 AM50 °FHaze.No wind88%29.98 "Hg2 mi
4:00 AM52 °FHaze.No wind88%29.98 "Hg2 mi
3:00 AM54 °FHaze.No wind77%29.98 "Hg2 mi
2:00 AM55 °FHaze.No wind72%29.98 "Hg2 mi
1:00 AM55 °FHaze.5 mph72%29.98 "Hg2 mi
12:00 AM55 °FHaze.5 mph72%29.98 "Hg2 mi
11:00 PM
Nov 27
55 °FHaze.5 mph77%30.01 "Hg2 mi
10:00 PM57 °FHaze.5 mph67%29.98 "Hg2 mi
9:00 PM59 °FHaze.5 mph72%29.98 "Hg2 mi
8:00 PM61 °FHaze.7 mph68%29.98 "Hg2 mi
7:00 PM63 °FPassing clouds.5 mph64%29.98 "Hg2 mi
6:00 PM66 °FPassing clouds.No wind52%29.95 "Hg2 mi
5:00 PM70 °FHaze.No wind50%29.92 "Hg2 mi
4:00 PM72 °FHaze.7 mph38%29.92 "Hg2 mi
12:00 PM64 °FBroken clouds.5 mph56%29.98 "Hg1 mi
11:00 AM61 °FBroken clouds.5 mph68%29.98 "Hg1 mi
10:00 AM61 °FBroken clouds.5 mph68%29.98 "Hg1 mi
Weather by CustomWeather, © 2014

See weather overviewHow to use our weather pages